Time,TemperatureF,DewpointF,PressureIn,WindDirection,WindDirectionDegrees,WindSpeedMPH,WindSpeedGustMPH,Humidity,HourlyPrecipIn,Conditions,Clouds,dailyrainin,SoftwareType,DateUTC
2013-02-15 00:01:00,34.0,16.8,24.53,NW,315,3.5,3.5,49,0.00,CLR,,0.00,WeatherDisplay:10.37,2013-02-15 07:01:00,
2013-02-15 00:06:00,33.8,17.1,24.54,North,0,9.2,9.2,50,0.00,CLR,,0.00,WeatherDisplay:10.37,2013-02-15 07:06:00,
2013-02-15 00:11:00,33.8,17.1,24.54,NW,315,6.9,6.9,50,0.00,CLR,,0.00,WeatherDisplay:10.37,2013-02-15 07:11:00,
2013-02-15 00:16:00,33.6,17.4,24.53,NW,315,5.8,5.8,51,0.00,CLR,,0.00,WeatherDisplay:10.37,2013-02-15 07:16:00,
2013-02-15 00:21:00,33.3,17.5,24.54,NW,315,5.8,5.8,52,0.00,CLR,,0.00,WeatherDisplay:10.37,2013-02-15 07:21:00,
2013-02-15 00:27:00,32.9,17.6,24.54,NW,315,8.1,8.1,53,0.00,CLR,,0.00,WeatherDisplay:10.37,2013-02-15 07:27:00,
2013-02-15 00:32:00,32.7,17.5,24.54,NW,315,5.8,5.8,53,0.00,CLR,,0.00,WeatherDisplay:10.37,2013-02-15 07:32:00,
2013-02-15 00:37:00,32.5,17.3,24.54,NW,315,4.6,4.6,53,0.00,CLR,,0.00,WeatherDisplay:10.37,2013-02-15 07:37:00,
2013-02-15 00:42:00,32.7,17.5,24.55,NW,315,5.8,5.8,53,0.00,CLR,,0.00,WeatherDisplay:10.37,2013-02-15 07:42:00,
2013-02-15 00:48:00,32.5,17.3,24.55,NW,315,4.6,4.6,53,0.00,CLR,,0.00,WeatherDisplay:10.37,2013-02-15 07:48:00,
2013-02-15 00:53:00,32.4,17.1,24.55,West,270,5.8,5.8,53,0.00,CLR,,0.00,WeatherDisplay:10.37,2013-02-15 07:53:00,
2013-02-15 00:58:00,32.0,16.8,24.55,West,270,5.8,5.8,53,0.00,CLR,,0.00,WeatherDisplay:10.37,2013-02-15 07:58:00,
2013-02-15 01:03:00,32.0,16.8,24.55,West,270,4.6,4.6,53,0.00,CLR,,0.00,WeatherDisplay:10.37,2013-02-15 08:03:00,
2013-02-15 01:09:00,32.0,17.2,24.55,NW,315,6.9,6.9,54,0.00,CLR,,0.00,WeatherDisplay:10.37,2013-02-15 08:09:00,
2013-02-15 01:14:00,32.4,17.1,24.54,NW,315,6.9,6.9,53,0.00,CLR,,0.00,WeatherDisplay:10.37,2013-02-15 08:14:00,
2013-02-15 01:19:00,32.5,17.3,24.55,West,270,8.1,8.1,53,0.00,CLR,,0.00,WeatherDisplay:10.37,2013-02-15 08:19:00,
2013-02-15 01:24:00,32.7,17.5,24.55,West,270,4.6,4.6,53,0.00,CLR,,0.00,WeatherDisplay:10.37,2013-02-15 08:24:00,
2013-02-15 01:30:00,32.0,16.8,24.55,SW,225,3.5,3.5,53,0.00,CLR,,0.00,WeatherDisplay:10.37,2013-02-15 08:30:00,
2013-02-15 01:35:00,31.3,16.5,24.55,West,270,3.5,3.5,54,0.00,CLR,,0.00,WeatherDisplay:10.37,2013-02-15 08:35:00,
2013-02-15 01:40:00,30.9,16.6,24.55,SW,225,5.8,5.8,55,0.00,CLR,,0.00,WeatherDisplay:10.37,2013-02-15 08:40:00,
2013-02-15 01:46:00,30.9,16.6,24.55,WSW,248,5.8,5.8,55,0.00,CLR,,0.00,WeatherDisplay:10.37,2013-02-15 08:46:00,
2013-02-15 01:51:00,31.1,16.8,24.55,West,270,6.9,6.9,55,0.00,CLR,,0.00,WeatherDisplay:10.37,2013-02-15 08:51:00,
2013-02-15 01:56:00,31.5,17.1,24.55,West,270,5.8,5.8,55,0.00,CLR,,0.00,WeatherDisplay:10.37,2013-02-15 08:56:00,
2013-02-15 02:01:00,31.6,16.9,24.55,WSW,248,5.8,5.8,54,0.00,CLR,,0.00,WeatherDisplay:10.37,2013-02-15 09:01:00,
2013-02-15 02:07:00,31.5,16.7,24.56,West,270,5.8,5.8,54,0.00,CLR,,0.00,WeatherDisplay:10.37,2013-02-15 09:07:00,
2013-02-15 02:12:00,31.6,16.9,24.55,West,270,6.9,6.9,54,0.00,CLR,,0.00,WeatherDisplay:10.37,2013-02-15 09:12:00,
2013-02-15 02:17:00,31.5,16.7,24.56,WNW,292,5.8,5.8,54,0.00,CLR,,0.00,WeatherDisplay:10.37,2013-02-15 09:17:00,
2013-02-15 02:22:00,31.5,17.1,24.56,NW,315,4.6,4.6,55,0.00,CLR,,0.00,WeatherDisplay:10.37,2013-02-15 09:22:00,
2013-02-15 02:28:00,31.1,17.2,24.56,West,270,6.9,6.9,56,0.00,CLR,,0.00,WeatherDisplay:10.37,2013-02-15 09:28:00,
2013-02-15 02:33:00,32.4,19.6,24.56,SW,225,9.2,9.2,59,0.00,CLR,,0.00,WeatherDisplay:10.37,2013-02-15 09:33:00,
2013-02-15 02:38:00,31.8,18.7,24.56,West,270,3.5,3.5,58,0.00,CLR,,0.00,WeatherDisplay:10.37,2013-02-15 09:38:00,
2013-02-15 02:43:00,31.5,18.8,24.56,SW,225,3.5,3.5,59,0.00,CLR,,0.00,WeatherDisplay:10.37,2013-02-15 09:43:00,
2013-02-15 02:49:00,31.5,18.0,24.57,West,270,3.5,3.5,57,0.00,CLR,,0.00,WeatherDisplay:10.37,2013-02-15 09:49:00,
2013-02-15 02:54:00,31.5,18.0,24.56,West,270,5.8,5.8,57,0.00,CLR,,0.00,WeatherDisplay:10.37,2013-02-15 09:54:00,
2013-02-15 02:59:00,31.1,17.6,24.56,NW,315,5.8,5.8,57,0.00,CLR,,0.00,WeatherDisplay:10.37,2013-02-15 09:59:00,
2013-02-15 03:04:00,31.1,17.6,24.56,NW,315,5.8,5.8,57,0.00,CLR,,0.00,WeatherDisplay:10.37,2013-02-15 10:04:00,
2013-02-15 03:10:00,30.2,16.4,24.56,NW,315,5.8,5.8,56,0.00,CLR,,0.00,WeatherDisplay:10.37,2013-02-15 10:10:00,
2013-02-15 03:15:00,29.8,16.4,24.56,NW,315,9.2,9.2,57,0.00,CLR,,0.00,WeatherDisplay:10.37,2013-02-15 10:15:00,
2013-02-15 03:20:00,29.8,16.4,24.56,NW,315,6.9,6.9,57,0.00,CLR,,0.00,WeatherDisplay:10.37,2013-02-15 10:20:00,
2013-02-15 03:25:00,29.7,16.3,24.56,NW,315,10.4,10.4,57,0.00,CLR,,0.00,WeatherDisplay:10.37,2013-02-15 10:25:00,
2013-02-15 03:31:00,28.9,16.0,24.56,West,270,6.9,6.9,58,0.00,CLR,,0.00,WeatherDisplay:10.37,2013-02-15 10:31:00,
2013-02-15 03:36:00,28.8,15.8,24.56,West,270,8.1,8.1,58,0.00,CLR,,0.00,WeatherDisplay:10.37,2013-02-15 10:36:00,
2013-02-15 03:41:00,29.5,16.9,24.56,NW,315,10.4,10.4,59,0.00,CLR,,0.00,WeatherDisplay:10.37,2013-02-15 10:41:00,
2013-02-15 03:46:00,29.8,16.8,24.56,West,270,8.1,8.1,58,0.00,CLR,,0.00,WeatherDisplay:10.37,2013-02-15 10:46:00,
2013-02-15 03:52:00,29.1,16.2,24.55,West,270,6.9,6.9,58,0.00,CLR,,0.00,WeatherDisplay:10.37,2013-02-15 10:52:00,
2013-02-15 03:57:00,28.8,16.2,24.56,West,270,5.8,5.8,59,0.00,CLR,,0.00,WeatherDisplay:10.37,2013-02-15 10:57:00,
2013-02-15 04:02:00,28.0,13.9,24.56,NW,315,4.6,4.6,55,0.00,CLR,,0.00,WeatherDisplay:10.37,2013-02-15 11:02:00,
2013-02-15 04:07:00,27.7,14.0,24.56,NW,315,5.8,5.8,56,0.00,CLR,,0.00,WeatherDisplay:10.37,2013-02-15 11:07:00,
2013-02-15 04:13:00,28.0,15.2,24.57,West,270,6.9,6.9,58,0.00,CLR,,0.00,WeatherDisplay:10.37,2013-02-15 11:13:00,
2013-02-15 04:18:00,28.8,17.0,24.56,NW,315,5.8,5.8,61,0.00,CLR,,0.00,WeatherDisplay:10.37,2013-02-15 11:18:00,
2013-02-15 04:23:00,29.5,17.3,24.57,WNW,292,5.8,5.8,60,0.00,CLR,,0.00,WeatherDisplay:10.37,2013-02-15 11:23:00,
2013-02-15 04:28:00,29.5,16.9,24.57,NW,315,4.6,4.6,59,0.00,CLR,,0.00,WeatherDisplay:10.37,2013-02-15 11:28:00,
2013-02-15 04:33:00,28.8,16.2,24.56,NW,315,5.8,5.8,59,0.00,CLR,,0.00,WeatherDisplay:10.37,2013-02-15 11:33:00,
2013-02-15 04:39:00,28.0,13.9,24.56,NW,315,6.9,6.9,55,0.00,CLR,,0.00,WeatherDisplay:10.37,2013-02-15 11:39:00,
2013-02-15 04:44:00,27.5,13.8,24.56,North,0,5.8,5.8,56,0.00,CLR,,0.00,WeatherDisplay:10.37,2013-02-15 11:44:00,
2013-02-15 04:49:00,27.9,15.0,24.57,North,0,6.9,6.9,58,0.00,CLR,,0.00,WeatherDisplay:10.37,2013-02-15 11:49:00,
2013-02-15 04:54:00,28.4,16.7,24.56,North,0,8.1,8.1,61,0.00,CLR,,0.00,WeatherDisplay:10.37,2013-02-15 11:54:00,
2013-02-15 05:00:00,28.0,14.3,24.57,NW,315,8.1,8.1,56,0.00,CLR,,0.00,WeatherDisplay:10.37,2013-02-15 12:00:00,
2013-02-15 05:05:00,28.0,14.3,24.57,NW,315,6.9,6.9,56,0.00,CLR,,0.00,WeatherDisplay:10.37,2013-02-15 12:05:00,
2013-02-15 05:10:00,26.2,13.5,24.57,NW,315,5.8,5.8,58,0.00,CLR,,0.00,WeatherDisplay:10.37,2013-02-15 12:10:00,
2013-02-15 05:15:00,25.9,13.9,24.56,North,0,6.9,6.9,60,0.00,CLR,,0.00,WeatherDisplay:10.37,2013-02-15 12:15:00,
2013-02-15 05:21:00,25.7,14.1,24.56,NW,315,5.8,5.8,61,0.00,CLR,,0.00,WeatherDisplay:10.37,2013-02-15 12:21:00,
2013-02-15 05:26:00,25.3,13.8,24.57,NW,315,5.8,5.8,61,0.00,CLR,,0.00,WeatherDisplay:10.37,2013-02-15 12:26:00,
2013-02-15 05:31:00,25.2,14.0,24.56,North,0,6.9,6.9,62,0.00,CLR,,0.00,WeatherDisplay:10.37,2013-02-15 12:31:00,
2013-02-15 05:36:00,25.0,13.8,24.57,NW,315,6.9,6.9,62,0.00,CLR,,0.00,WeatherDisplay:10.37,2013-02-15 12:36:00,
2013-02-15 05:41:00,24.6,13.8,24.57,NW,315,6.9,6.9,63,0.00,CLR,,0.00,WeatherDisplay:10.37,2013-02-15 12:41:00,
2013-02-15 05:47:00,24.4,13.6,24.57,NW,315,4.6,4.6,63,0.00,CLR,,0.00,WeatherDisplay:10.37,2013-02-15 12:47:00,
2013-02-15 05:52:00,24.3,13.8,24.57,NW,315,5.8,5.8,64,0.00,CLR,,0.00,WeatherDisplay:10.37,2013-02-15 12:52:00,
2013-02-15 05:57:00,24.3,13.8,24.57,NW,315,4.6,4.6,64,0.00,CLR,,0.00,WeatherDisplay:10.37,2013-02-15 12:57:00,
2013-02-15 06:02:00,24.3,14.2,24.57,NW,315,6.0,6.0,65,0.00,CLR,,0.00,WeatherDisplay:10.37,2013-02-15 13:02:00,
2013-02-15 06:08:00,24.4,15.0,24.57,NW,315,6.9,6.9,67,0.00,CLR,,0.00,WeatherDisplay:10.37,2013-02-15 13:08:00,
2013-02-15 06:13:00,24.3,14.9,24.58,West,270,6.9,6.9,67,0.00,CLR,,0.00,WeatherDisplay:10.37,2013-02-15 13:13:00,
2013-02-15 06:18:00,24.3,15.2,24.57,West,270,5.8,5.8,68,0.00,CLR,,0.00,WeatherDisplay:10.37,2013-02-15 13:18:00,
2013-02-15 06:23:00,24.1,15.4,24.58,NW,315,5.8,5.8,69,0.00,CLR,,0.00,WeatherDisplay:10.37,2013-02-15 13:23:00,
2013-02-15 06:29:00,24.1,15.7,24.58,West,270,5.8,5.8,70,0.00,CLR,,0.00,WeatherDisplay:10.37,2013-02-15 13:29:00,
2013-02-15 06:34:00,23.7,15.4,24.58,West,270,5.8,5.8,70,0.00,CLR,,0.00,WeatherDisplay:10.37,2013-02-15 13:34:00,
2013-02-15 06:39:00,24.3,16.8,24.58,West,270,5.8,5.8,73,0.00,CLR,,0.00,WeatherDisplay:10.37,2013-02-15 13:39:00,
2013-02-15 06:44:00,24.6,17.2,24.58,NW,315,5.8,5.8,73,0.00,CLR,,0.00,WeatherDisplay:10.37,2013-02-15 13:44:00,
2013-02-15 06:50:00,24.6,17.2,24.58,West,270,4.6,4.6,73,0.00,CLR,,0.00,WeatherDisplay:10.37,2013-02-15 13:50:00,
2013-02-15 06:55:00,24.8,17.4,24.58,West,270,4.6,4.6,73,0.00,CLR,,0.00,WeatherDisplay:10.37,2013-02-15 13:55:00,
2013-02-15 07:00:00,25.2,17.7,24.58,West,270,4.6,4.6,73,0.00,CLR,,0.00,WeatherDisplay:10.37,2013-02-15 14:00:00,
2013-02-15 07:06:00,25.2,17.7,24.58,West,270,4.6,4.6,73,0.00,CLR,,0.00,WeatherDisplay:10.37,2013-02-15 14:06:00,
2013-02-15 07:11:00,25.5,17.7,24.58,WNW,292,6.0,6.0,72,0.00,CLR,,0.00,WeatherDisplay:10.37,2013-02-15 14:11:00,
2013-02-15 07:16:00,26.2,18.4,24.58,West,270,5.8,5.8,72,0.00,CLR,,0.00,WeatherDisplay:10.37,2013-02-15 14:16:00,
2013-02-15 07:21:00,27.3,18.5,24.58,NW,315,4.6,4.6,69,0.00,CLR,,0.00,WeatherDisplay:10.37,2013-02-15 14:21:00,
2013-02-15 07:27:00,27.9,18.0,24.59,West,270,5.8,5.8,66,0.00,CLR,,0.00,WeatherDisplay:10.37,2013-02-15 14:27:00,
2013-02-15 07:32:00,28.9,20.0,24.59,NW,315,3.5,3.5,69,0.00,CLR,,0.00,WeatherDisplay:10.37,2013-02-15 14:32:00,
2013-02-15 07:37:00,30.2,20.2,24.59,West,270,5.8,5.8,66,0.00,CLR,,0.00,WeatherDisplay:10.37,2013-02-15 14:37:00,
2013-02-15 07:42:00,30.6,20.2,24.59,West,270,4.6,4.6,65,0.00,CLR,,0.00,WeatherDisplay:10.37,2013-02-15 14:42:00,
2013-02-15 07:48:00,31.8,21.4,24.60,NW,315,5.8,5.8,65,0.00,CLR,,0.00,WeatherDisplay:10.37,2013-02-15 14:48:00,
2013-02-15 07:53:00,33.6,22.4,24.60,West,270,4.5,4.5,63,0.00,CLR,,0.00,WeatherDisplay:10.37,2013-02-15 14:53:00,
2013-02-15 07:58:00,34.9,22.0,24.60,West,270,4.6,4.6,59,0.00,CLR,,0.00,WeatherDisplay:10.37,2013-02-15 14:58:00,
2013-02-15 08:04:00,36.1,21.5,24.60,West,270,3.5,3.5,55,0.00,CLR,,0.00,WeatherDisplay:10.37,2013-02-15 15:04:00,
2013-02-15 17:45:00,37.2,22.1,24.60,West,270,3.5,3.5,54,0.00,CLR,,0.00,WeatherDisplay:10.37,2013-02-16 00:45:00,
2013-02-15 17:50:00,45.5,7.8,24.56,NW,315,11.5,11.5,21,0.00,CLR,,0.00,WeatherDisplay:10.37,2013-02-16 00:50:00,
2013-02-15 17:56:00,45.1,7.5,24.56,NW,315,10.4,10.4,21,0.00,CLR,,0.00,WeatherDisplay:10.37,2013-02-16 00:56:00,
2013-02-15 18:01:00,44.6,7.0,24.57,NW,315,5.8,5.8,21,0.00,CLR,,0.00,WeatherDisplay:10.37,2013-02-16 01:01:00,
2013-02-15 18:06:00,44.1,7.6,24.57,NW,315,4.6,4.6,22,0.00,CLR,,0.00,WeatherDisplay:10.37,2013-02-16 01:06:00,
2013-02-15 18:11:00,43.7,7.3,24.57,West,270,4.6,4.6,22,0.00,CLR,,0.00,WeatherDisplay:10.37,2013-02-16 01:11:00,
2013-02-15 18:17:00,43.0,6.7,24.58,NW,315,3.5,3.5,22,0.00,CLR,,0.00,WeatherDisplay:10.37,2013-02-16 01:17:00,
2013-02-15 18:22:00,42.4,7.2,24.58,NW,315,5.8,5.8,23,0.00,CLR,,0.00,WeatherDisplay:10.37,2013-02-16 01:22:00,
2013-02-15 18:27:00,42.1,6.9,24.58,NW,315,5.8,5.8,23,0.00,CLR,,0.00,WeatherDisplay:10.37,2013-02-16 01:27:00,
2013-02-15 18:32:00,42.1,6.9,24.58,NW,315,5.8,5.8,23,0.00,CLR,,0.00,WeatherDisplay:10.37,2013-02-16 01:32:00,
2013-02-15 18:38:00,41.9,6.7,24.58,NW,315,6.9,6.9,23,0.00,CLR,,0.00,WeatherDisplay:10.37,2013-02-16 01:38:00,
2013-02-15 18:42:00,41.7,6.6,24.58,WNW,292,5.8,5.8,23,0.00,CLR,,0.00,WeatherDisplay:10.37,2013-02-16 01:42:00,
2013-02-15 18:48:00,41.5,6.4,24.58,NW,315,6.9,6.9,23,0.00,CLR,,0.00,WeatherDisplay:10.37,2013-02-16 01:48:00,
2013-02-15 18:53:00,41.4,6.3,24.59,NW,315,8.1,8.1,23,0.00,CLR,,0.00,WeatherDisplay:10.37,2013-02-16 01:53:00,
2013-02-15 18:58:00,41.4,6.3,24.59,West,270,5.8,5.8,23,0.00,CLR,,0.00,WeatherDisplay:10.37,2013-02-16 01:58:00,
2013-02-15 19:03:00,41.2,6.1,24.59,NW,315,6.9,6.9,23,0.00,CLR,,0.00,WeatherDisplay:10.37,2013-02-16 02:03:00,
2013-02-15 19:09:00,41.0,6.0,24.60,NW,315,6.9,6.9,23,0.00,CLR,,0.00,WeatherDisplay:10.37,2013-02-16 02:09:00,
2013-02-15 19:14:00,41.2,6.1,24.60,NW,315,9.2,9.2,23,0.00,CLR,,0.00,WeatherDisplay:10.37,2013-02-16 02:14:00,
2013-02-15 19:19:00,41.4,6.3,24.60,NW,315,10.4,10.4,23,0.00,CLR,,0.00,WeatherDisplay:10.37,2013-02-16 02:19:00,
2013-02-15 19:24:00,41.2,6.1,24.60,NW,315,9.2,9.2,23,0.00,CLR,,0.00,WeatherDisplay:10.37,2013-02-16 02:24:00,
2013-02-15 19:30:00,40.5,6.4,24.60,NW,315,10.4,10.4,24,0.00,CLR,,0.00,WeatherDisplay:10.37,2013-02-16 02:30:00,
2013-02-15 19:35:00,39.9,6.0,24.60,NW,315,10.4,10.4,24,0.00,CLR,,0.00,WeatherDisplay:10.37,2013-02-16 02:35:00,
2013-02-15 19:40:00,39.6,5.7,24.60,NW,315,10.4,10.4,24,0.00,CLR,,0.00,WeatherDisplay:10.37,2013-02-16 02:40:00,
2013-02-15 19:45:00,39.2,5.4,24.60,NW,315,10.4,10.4,24,0.00,CLR,,0.00,WeatherDisplay:10.37,2013-02-16 02:45:00,
2013-02-15 19:51:00,39.4,5.5,24.60,NW,315,12.7,12.7,24,0.00,CLR,,0.00,WeatherDisplay:10.37,2013-02-16 02:51:00,
2013-02-15 19:56:00,39.4,5.5,24.60,NW,315,13.8,13.8,24,0.00,CLR,,0.00,WeatherDisplay:10.37,2013-02-16 02:56:00,
2013-02-15 20:01:00,39.4,5.5,24.60,NW,315,10.4,10.4,24,0.00,CLR,,0.00,WeatherDisplay:10.37,2013-02-16 03:01:00,
2013-02-15 20:06:00,39.4,5.5,24.60,West,270,13.8,13.8,24,0.00,CLR,,0.00,WeatherDisplay:10.37,2013-02-16 03:06:00,
2013-02-15 20:11:00,39.7,5.8,24.61,NW,315,16.1,16.1,24,0.00,CLR,,0.00,WeatherDisplay:10.37,2013-02-16 03:11:00,
2013-02-15 20:17:00,39.6,5.7,24.60,WNW,292,15.0,15.0,24,0.00,CLR,,0.00,WeatherDisplay:10.37,2013-02-16 03:17:00,
2013-02-15 20:22:00,39.4,5.5,24.60,NW,315,16.1,16.1,24,0.00,CLR,,0.00,WeatherDisplay:10.37,2013-02-16 03:22:00,
2013-02-15 20:27:00,39.4,5.5,24.60,North,0,13.8,13.8,24,0.00,CLR,,0.00,WeatherDisplay:10.37,2013-02-16 03:27:00,
2013-02-15 20:32:00,39.2,5.4,24.60,NW,315,15.0,15.0,24,0.00,CLR,,0.00,WeatherDisplay:10.37,2013-02-16 03:32:00,
2013-02-15 20:38:00,39.4,5.5,24.60,NW,315,17.3,17.3,24,0.00,CLR,,0.00,WeatherDisplay:10.37,2013-02-16 03:38:00,
2013-02-15 20:43:00,39.2,5.4,24.60,NW,315,15.0,15.0,24,0.00,CLR,,0.00,WeatherDisplay:10.37,2013-02-16 03:43:00,
2013-02-15 20:48:00,38.8,6.0,24.60,NW,315,15.0,15.0,25,0.00,CLR,,0.00,WeatherDisplay:10.37,2013-02-16 03:48:00,
2013-02-15 20:53:00,38.8,6.0,24.60,NW,315,16.1,16.1,25,0.00,CLR,,0.00,WeatherDisplay:10.37,2013-02-16 03:53:00,
2013-02-15 20:58:00,38.8,6.0,24.61,NW,315,12.7,12.7,25,0.00,CLR,,0.00,WeatherDisplay:10.37,2013-02-16 03:58:00,
2013-02-15 21:03:00,38.7,5.8,24.61,WNW,292,12.7,12.7,25,0.00,CLR,,0.00,WeatherDisplay:10.37,2013-02-16 04:03:00,
2013-02-15 21:09:00,38.8,6.8,24.61,NW,315,17.3,17.3,26,0.00,CLR,,0.00,WeatherDisplay:10.37,2013-02-16 04:09:00,
2013-02-15 21:14:00,38.8,6.8,24.62,NW,315,15.0,15.0,26,0.00,CLR,,0.00,WeatherDisplay:10.37,2013-02-16 04:14:00,
2013-02-15 21:19:00,38.8,6.8,24.62,NW,315,17.3,17.3,26,0.00,CLR,,0.00,WeatherDisplay:10.37,2013-02-16 04:19:00,
2013-02-15 21:24:00,38.7,6.7,24.62,NW,315,24.2,24.2,26,0.00,CLR,,0.00,WeatherDisplay:10.37,2013-02-16 04:24:00,
2013-02-15 21:30:00,38.8,6.8,24.62,North,0,18.4,18.4,26,0.00,CLR,,0.00,WeatherDisplay:10.37,2013-02-16 04:30:00,
2013-02-15 21:35:00,38.5,6.5,24.63,NW,315,16.1,16.1,26,0.00,CLR,,0.00,WeatherDisplay:10.37,2013-02-16 04:35:00,
2013-02-15 21:40:00,38.5,7.3,24.63,North,0,15.0,15.0,27,0.00,CLR,,0.00,WeatherDisplay:10.37,2013-02-16 04:40:00,
2013-02-15 21:45:00,38.3,7.2,24.64,North,0,17.3,17.3,27,0.00,CLR,,0.00,WeatherDisplay:10.37,2013-02-16 04:45:00,
2013-02-15 21:51:00,38.1,7.0,24.64,NNW,338,18.4,18.4,27,0.00,CLR,,0.00,WeatherDisplay:10.37,2013-02-16 04:51:00,
2013-02-15 21:56:00,37.9,6.9,24.64,NW,315,15.0,15.0,27,0.00,CLR,,0.00,WeatherDisplay:10.37,2013-02-16 04:56:00,
2013-02-15 22:00:00,37.9,6.9,24.64,NW,315,17.3,17.3,27,0.00,CLR,,0.00,WeatherDisplay:10.37,2013-02-16 05:00:00,
2013-02-15 22:01:00,37.9,6.9,24.64,West,270,16.1,16.1,27,0.00,CLR,,0.00,WeatherDisplay:10.37,2013-02-16 05:01:00,
2013-02-15 22:07:00,38.1,7.0,24.64,NW,315,20.7,20.7,27,0.00,CLR,,0.00,WeatherDisplay:10.37,2013-02-16 05:07:00,
2013-02-15 22:12:00,37.9,6.9,24.64,NW,315,17.3,17.3,27,0.00,CLR,,0.00,WeatherDisplay:10.37,2013-02-16 05:12:00,
2013-02-15 22:17:00,37.8,7.5,24.64,North,0,15.0,15.0,28,0.00,CLR,,0.00,WeatherDisplay:10.37,2013-02-16 05:17:00,
2013-02-15 22:22:00,37.4,7.2,24.64,North,0,17.3,17.3,28,0.00,CLR,,0.00,WeatherDisplay:10.37,2013-02-16 05:22:00,
2013-02-15 22:28:00,37.2,3.7,24.64,WNW,292,12.7,12.7,24,0.00,CLR,,0.00,WeatherDisplay:10.37,2013-02-16 05:28:00,
2013-02-15 22:31:00,36.9,3.4,24.64,NW,315,15.0,15.0,24,0.00,CLR,,0.00,WeatherDisplay:10.37,2013-02-16 05:31:00,
2013-02-15 22:36:00,36.7,3.2,24.64,NW,315,16.1,16.1,24,0.00,CLR,,0.00,WeatherDisplay:10.37,2013-02-16 05:36:00,
2013-02-15 22:41:00,36.3,2.9,24.64,NW,315,13.8,13.8,24,0.00,CLR,,0.00,WeatherDisplay:10.37,2013-02-16 05:41:00,
2013-02-15 22:47:00,36.3,2.9,24.64,NW,315,13.8,13.8,24,0.00,CLR,,0.00,WeatherDisplay:10.37,2013-02-16 05:47:00,
2013-02-15 22:52:00,36.1,2.8,24.64,NW,315,17.3,17.3,24,0.00,CLR,,0.00,WeatherDisplay:10.37,2013-02-16 05:52:00,
2013-02-15 22:57:00,35.8,3.3,24.64,NW,315,19.6,19.6,25,0.00,CLR,,0.00,WeatherDisplay:10.37,2013-02-16 05:57:00,
2013-02-15 23:03:00,35.8,3.3,24.65,NW,315,11.5,11.5,25,0.00,CLR,,0.00,WeatherDisplay:10.37,2013-02-16 06:03:00,
2013-02-15 23:08:00,35.6,3.2,24.65,NW,315,11.5,11.5,25,0.00,CLR,,0.00,WeatherDisplay:10.37,2013-02-16 06:08:00,
2013-02-15 23:13:00,35.6,4.0,24.65,NW,315,15.0,15.0,26,0.00,CLR,,0.00,WeatherDisplay:10.37,2013-02-16 06:13:00,
2013-02-15 23:18:00,35.4,4.7,24.64,North,0,12.7,12.7,27,0.00,CLR,,0.00,WeatherDisplay:10.37,2013-02-16 06:18:00,
2013-02-15 23:24:00,35.4,4.7,24.65,NW,315,13.8,13.8,27,0.00,CLR,,0.00,WeatherDisplay:10.37,2013-02-16 06:24:00,
2013-02-15 23:29:00,35.2,4.5,24.65,NW,315,11.5,11.5,27,0.00,CLR,,0.00,WeatherDisplay:10.37,2013-02-16 06:29:00,
2013-02-15 23:34:00,34.9,4.2,24.65,North,0,10.4,10.4,27,0.00,CLR,,0.00,WeatherDisplay:10.37,2013-02-16 06:34:00,
2013-02-15 23:39:00,34.5,4.7,24.65,North,0,8.1,8.1,28,0.00,CLR,,0.00,WeatherDisplay:10.37,2013-02-16 06:39:00,
2013-02-15 23:45:00,34.3,4.5,24.65,NE,45,5.8,5.8,28,0.00,CLR,,0.00,WeatherDisplay:10.37,2013-02-16 06:45:00,
2013-02-15 23:50:00,34.0,4.2,24.66,NNW,338,3.5,3.5,28,0.00,CLR,,0.00,WeatherDisplay:10.37,2013-02-16 06:50:00,
2013-02-15 23:55:00,33.6,4.7,24.66,NW,315,1.1,0.0,29,0.00,CLR,,0.00,WeatherDisplay:10.37,2013-02-16 06:55:00,